Total_Precipitation_Accumulation
0.41 0.41 0.41 0.41 0.40 0.40 0.42 0.44 0.50 0.52 0.42 0.30 0.24 0.20 0.18 0.18 0.23 0.24 0.27 0.30 0.28 0.25 0.22 0.18 0.17 0.17 0.18 0.20 0.23 0.26 0.29 0.34 0.41 0.49 0.61 0.74 0.88 1.05
0.26 0.26 0.28 0.27 0.27 0.28 0.31 0.34 0.38 0.45 0.42 0.29 0.22 0.18 0.17 0.16 0.19 0.22 0.25 0.23 0.21 0.20 0.17 0.15 0.13 0.13 0.14 0.15 0.18 0.20 0.23 0.26 0.30 0.36 0.45 0.57 0.71 0.87
0.20 0.20 0.21 0.21 0.22 0.22 0.23 0.24 0.26 0.30 0.34 0.24 0.16 0.14 0.17 0.20 0.22 0.24 0.22 0.20 0.18 0.18 0.17 0.17 0.14 0.12 0.13 0.14 0.16 0.17 0.19 0.20 0.22 0.26 0.31 0.40 0.51 0.62
0.16 0.16 0.16 0.17 0.19 0.18 0.18 0.18 0.20 0.25 0.32 0.31 0.21 0.16 0.15 0.18 0.21 0.23 0.16 0.14 0.17 0.18 0.17 0.15 0.14 0.14 0.13 0.12 0.12 0.12 0.12 0.11 0.12 0.15 0.20 0.29 0.39 0.49
0.10 0.11 0.11 0.12 0.13 0.13 0.14 0.16 0.18 0.20 0.27 0.30 0.22 0.17 0.13 0.12 0.20 0.23 0.22 0.27 0.16 0.11 0.11 0.10 0.11 0.11 0.11 0.10 0.09 0.08 0.06 0.04 0.04 0.08 0.16 0.25 0.33 0.41
0.04 0.05 0.06 0.08 0.12 0.15 0.14 0.16 0.20 0.23 0.24 0.27 0.23 0.18 0.16 0.16 0.29 0.37 0.34 0.29 0.22 0.12 0.12 0.10 0.10 0.09 0.10 0.14 0.11 0.09 0.08 0.06 0.08 0.14 0.20 0.23 0.28 0.32
0.03 0.04 0.05 0.07 0.13 0.15 0.16 0.19 0.24 0.28 0.29 0.33 0.30 0.26 0.23 0.30 0.39 0.41 0.38 0.29 0.22 0.18 0.22 0.19 0.23 0.37 0.56 0.62 0.41 0.20 0.13 0.11 0.14 0.22 0.28 0.29 0.29 0.28
0.06 0.07 0.06 0.05 0.08 0.09 0.11 0.15 0.22 0.29 0.35 0.40 0.39 0.36 0.32 0.40 0.48 0.49 0.51 0.45 0.36 0.24 0.27 0.25 0.35 0.70 1.09 1.30 0.90 0.40 0.26 0.22 0.19 0.24 0.29 0.30 0.28 0.25
0.11 0.11 0.08 0.08 0.12 0.15 0.12 0.10 0.14 0.21 0.34 0.48 0.51 0.45 0.44 0.50 0.60 0.61 0.58 0.55 0.47 0.35 0.41 0.41 0.51 0.82 0.94 1.06 1.01 0.64 0.50 0.41 0.33 0.34 0.35 0.33 0.29 0.26
0.10 0.11 0.15 0.19 0.15 0.10 0.08 0.13 0.23 0.35 0.40 0.43 0.51 0.48 0.46 0.51 0.61 0.63 0.59 0.54 0.49 0.47 0.52 0.57 0.59 0.75 0.77 1.03 1.24 1.10 0.92 0.74 0.60 0.54 0.49 0.44 0.37 0.32
0.07 0.09 0.12 0.17 0.13 0.11 0.12 0.21 0.30 0.40 0.34 0.43 0.49 0.55 0.60 0.60 0.55 0.56 0.66 0.70 0.65 0.51 0.51 0.58 0.66 0.75 0.88 1.19 1.28 1.29 1.21 1.03 0.84 0.68 0.58 0.49 0.43 0.41
0.11 0.16 0.13 0.10 0.11 0.12 0.14 0.25 0.37 0.41 0.52 0.70 0.84 0.90 0.85 0.77 0.63 0.63 0.76 0.81 0.81 0.73 0.56 0.59 0.70 0.85 1.10 1.30 1.29 1.20 1.20 1.17 1.03 0.90 0.74 0.55 0.39 0.39
0.16 0.25 0.25 0.14 0.14 0.12 0.14 0.26 0.40 0.47 0.71 1.02 1.07 0.96 0.82 0.72 0.65 0.62 0.66 0.74 0.80 0.81 0.63 0.66 0.78 0.92 1.12 1.24 1.25 1.19 1.08 1.06 1.08 1.14 1.06 0.77 0.50 0.42
0.25 0.27 0.25 0.21 0.18 0.17 0.23 0.37 0.47 0.65 0.91 1.10 1.03 0.84 0.67 0.56 0.51 0.47 0.49 0.55 0.63 0.65 0.60 0.66 0.85 1.01 1.12 1.10 1.11 1.08 1.05 1.11 1.15 1.21 1.22 1.04 0.78 0.64
0.23 0.26 0.26 0.25 0.28 0.41 0.48 0.55 0.66 0.84 1.00 0.98 0.84 0.74 0.61 0.52 0.46 0.44 0.44 0.47 0.49 0.45 0.42 0.50 0.73 0.90 1.07 1.06 1.03 0.97 1.02 1.24 1.35 1.36 1.28 1.14 0.99 0.84
0.23 0.35 0.45 0.49 0.53 0.62 0.70 0.78 0.84 0.92 0.87 0.77 0.67 0.63 0.54 0.48 0.46 0.42 0.43 0.45 0.47 0.46 0.40 0.43 0.55 0.72 0.91 0.96 0.99 1.02 1.03 1.39 1.56 1.46 1.37 1.32 1.16 1.00
0.25 0.40 0.59 0.65 0.70 0.74 0.74 0.78 0.80 0.76 0.75 0.70 0.63 0.56 0.50 0.46 0.45 0.42 0.42 0.41 0.45 0.48 0.48 0.46 0.49 0.55 0.64 0.73 0.87 1.00 1.09 1.30 1.44 1.36 1.24 1.32 1.31 1.12
0.31 0.50 0.66 0.70 0.71 0.72 0.68 0.68 0.69 0.65 0.62 0.60 0.59 0.55 0.50 0.47 0.45 0.42 0.40 0.40 0.44 0.43 0.43 0.41 0.40 0.42 0.45 0.56 0.78 0.92 0.99 1.19 1.26 1.15 0.96 1.02 1.20 1.08
0.32 0.52 0.69 0.79 0.79 0.72 0.65 0.62 0.67 0.68 0.64 0.61 0.56 0.53 0.47 0.42 0.40 0.39 0.36 0.35 0.37 0.38 0.35 0.28 0.26 0.27 0.32 0.55 0.81 1.02 1.01 1.02 0.97 0.90 0.81 0.76 0.94 0.96
0.37 0.52 0.64 0.69 0.70 0.70 0.64 0.61 0.65 0.67 0.64 0.57 0.51 0.48 0.43 0.38 0.36 0.37 0.34 0.28 0.28 0.27 0.27 0.24 0.22 0.24 0.30 0.46 0.80 1.05 0.98 0.73 0.61 0.64 0.64 0.64 0.80 0.84
0.36 0.45 0.53 0.54 0.51 0.52 0.51 0.51 0.55 0.59 0.54 0.45 0.42 0.42 0.38 0.33 0.33 0.33 0.28 0.19 0.20 0.21 0.24 0.29 0.30 0.24 0.21 0.25 0.50 0.78 0.84 0.78 0.55 0.42 0.39 0.44 0.47 0.42
0.29 0.37 0.43 0.41 0.38 0.37 0.34 0.33 0.36 0.39 0.37 0.34 0.32 0.31 0.31 0.30 0.28 0.25 0.23 0.20 0.19 0.19 0.22 0.25 0.22 0.19 0.20 0.25 0.42 0.63 0.68 0.60 0.53 0.50 0.45 0.32 0.23 0.29
0.24 0.26 0.30 0.33 0.32 0.29 0.25 0.22 0.23 0.24 0.24 0.25 0.26 0.26 0.26 0.25 0.20 0.17 0.13 0.10 0.10 0.11 0.12 0.15 0.14 0.12 0.13 0.15 0.21 0.30 0.33 0.30 0.25 0.29 0.44 0.46 0.35 0.39